THOR ABLESTAR R/B, 59

Orbit data source: Space-Track

THOR ABLESTAR R/B, 59 is space debris in LEO originally from a launch on Tue, 04 Oct 1960 UTC launched from the Air Force Eastern Test Range (AFETR). Debris objects in space refer to the collection of defunct objects orbiting the Earth. Examples of debris include non-operational satellites, rocket bodies, and fragments generated from explosions, collisions, or faulty payload assembly.

Loading next visibility...
Identifier
59, 1960-013B
Orbit
LEO
Country
Flag of USUS
Related business
Manufacturer
Aerojet
Mission
Spacecraft
Bus & Motor
ABLESTAR, Unknown motor
Mass
600 kg wet, 600 kg dry
Launch date (UTC)
1960-10-04 (66 years ago)
Launch vehicle
Unknown
Launch site
Air Force Eastern Test Range (AFETR)
Object type
Payload
Rocket body
Debris
Shape & HBR
Unknown
Radar Cross Section
Large (>1 m²)

Expand to show TLE details & history
Last TLE update: 17 hours ago

TLE from 17 hours ago
0 THOR ABLESTAR R/B
1 00059U 60013B   26129.85397217  .00000108  00000-0  28417-4 0  9991
2 00059  28.2505 320.4960 0188910 353.9918   5.8375 13.53168175237973
Epoch: 2026-05-09T20:29Z
TLE epoch observation values (Epoch: 2026-05-09T20:29:43.195Z)
Latitude
-0.00002°
Longitude
145.40054°
Altitude
919.263 km
Speed
7.463 km/s
True Right ascension
21h 21m 59s
True Declination
0° 00' 00"
Sunlit
Object was in daylight at epoch
Visualization orbit readout
Latitude
Unknown
Longitude
Unknown
Altitude
Unknown
Speed
Unknown
Apparent Right ascension
Unknown
Apparent Declination
Unknown
Sunlit
N/A
Visualization observer readout
Local Sidereal Time
21:15:20
Azimuth
Unknown
Elevation
Unknown
Doppler factor
Unknown
Orbital elements
Apogee altitude
1,205.164 km
Perigee altitude
923.964 km
Semi-major axis
7,442.701 km
Eccentricity
0.01889
Inclination
28.2505°
RAAN
320.496°
Arg. of periapsis
353.9918°
True anomaly
6.06296°
Mean anomaly
5.8375°
Eccentric anomaly
5.94969°
Mean motion
3.38024 °/min
Orbital period
106.5 mins
BSTAR
0.000028417
Loading maneuver chart data...
Computing Atmospheric mass density...
Loading historical data...
Loading historical data...
Loading historical data...
Loading historical data...
Loading historical data...
Loading historical data...
Loading historical data...
Other satellites on launch #13 in the year 1960 (1960-10-04 UTC)

Documentation

Showing up to 5 results
|